Time,TemperatureF,DewpointF,PressureIn,WindDirection,WindDirectionDegrees,WindSpeedMPH,WindSpeedGustMPH,Humidity,HourlyPrecipIn,Conditions,Clouds,dailyrainin,SoftwareType,DateUTC
2013-02-01 00:03:00,31.0,22.0,29.91,West,276,7.0,12.0,68,0.00,,,0.63,,2013-02-01 05:03:00,
2013-02-01 00:12:00,31.0,22.0,29.91,West,276,7.0,12.0,68,0.00,,,0.63,,2013-02-01 05:12:00,
2013-02-01 00:22:00,31.0,22.0,29.91,West,267,6.0,10.0,69,0.00,,,0.63,,2013-02-01 05:22:00,
2013-02-01 00:32:00,31.0,22.0,29.90,West,267,4.0,9.0,69,0.00,,,0.46,,2013-02-01 05:32:00,
2013-02-01 00:42:00,31.0,22.0,29.90,West,267,4.0,9.0,69,0.00,,,0.46,,2013-02-01 05:42:00,
2013-02-01 00:52:00,32.0,23.0,29.89,WNW,298,8.0,15.0,69,0.00,,,0.46,,2013-02-01 05:52:00,
2013-02-01 01:02:00,33.0,23.0,29.89,WNW,283,10.0,18.0,67,0.00,,,0.46,,2013-02-01 06:02:00,
2013-02-01 01:12:00,33.0,23.0,29.89,WNW,283,10.0,18.0,67,0.00,,,0.46,,2013-02-01 06:12:00,
2013-02-01 01:22:00,33.0,23.0,29.88,West,271,7.0,17.0,67,0.00,,,0.34,,2013-02-01 06:22:00,
2013-02-01 01:32:00,33.0,23.0,29.87,West,261,7.0,16.0,67,0.00,,,0.34,,2013-02-01 06:32:00,
2013-02-01 01:42:00,33.0,23.0,29.87,West,261,7.0,16.0,67,0.00,,,0.34,,2013-02-01 06:42:00,
2013-02-01 01:52:00,33.0,24.0,29.86,WSW,241,8.0,16.0,68,0.00,,,0.34,,2013-02-01 06:52:00,
2013-02-01 02:02:00,33.0,24.0,29.85,WSW,251,7.0,13.0,69,0.00,,,0.34,,2013-02-01 07:02:00,
2013-02-01 02:12:00,33.0,24.0,29.85,WSW,251,7.0,13.0,69,0.00,,,0.34,,2013-02-01 07:12:00,
2013-02-01 02:22:00,34.0,25.0,29.85,West,274,10.0,17.0,69,0.00,,,0.23,,2013-02-01 07:22:00,
2013-02-01 02:32:00,34.0,25.0,29.84,West,259,9.0,18.0,68,0.00,,,0.23,,2013-02-01 07:32:00,
2013-02-01 02:42:00,34.0,25.0,29.84,West,259,9.0,18.0,68,0.00,,,0.23,,2013-02-01 07:42:00,
2013-02-01 02:52:00,34.0,25.0,29.83,WNW,302,11.0,19.0,69,0.00,,,0.23,,2013-02-01 07:52:00,
2013-02-01 03:01:00,34.0,26.0,29.83,West,263,8.0,24.0,72,0.00,,,0.23,,2013-02-01 08:01:00,
2013-02-01 03:11:00,34.0,26.0,29.83,West,263,8.0,24.0,72,0.00,,,0.23,,2013-02-01 08:11:00,
2013-02-01 03:21:00,34.0,26.0,29.83,West,275,11.0,24.0,73,0.00,,,0.15,,2013-02-01 08:21:00,
2013-02-01 03:32:00,34.0,27.0,29.83,West,261,15.0,26.0,75,0.00,,,0.15,,2013-02-01 08:32:00,
2013-02-01 03:42:00,34.0,27.0,29.83,West,261,15.0,26.0,75,0.00,,,0.15,,2013-02-01 08:42:00,
2013-02-01 03:52:00,33.0,28.0,29.86,NW,320,11.0,25.0,80,0.00,,,0.15,,2013-02-01 08:52:00,
2013-02-01 04:02:00,31.0,29.0,29.85,West,274,6.0,15.0,91,0.00,,,0.15,,2013-02-01 09:02:00,
2013-02-01 04:11:00,31.0,29.0,29.85,West,274,6.0,15.0,91,0.00,,,0.15,,2013-02-01 09:11:00,
2013-02-01 04:21:00,29.0,27.0,29.88,WNW,300,10.0,30.0,91,0.00,,,0.09,,2013-02-01 09:21:00,
2013-02-01 04:32:00,27.0,24.0,29.90,NW,313,15.0,21.0,90,0.00,,,0.09,,2013-02-01 09:32:00,
2013-02-01 04:42:00,27.0,24.0,29.90,NW,313,15.0,21.0,90,0.00,,,0.09,,2013-02-01 09:42:00,
2013-02-01 04:52:00,26.0,24.0,29.93,NNW,337,10.0,24.0,91,0.00,,,0.09,,2013-02-01 09:52:00,
2013-02-01 05:01:00,26.0,24.0,29.93,NNW,337,10.0,24.0,91,0.00,,,0.09,,2013-02-01 10:01:00,
2013-02-01 05:11:00,26.0,24.0,29.93,NNW,337,10.0,24.0,91,0.00,,,0.09,,2013-02-01 10:11:00,
2013-02-01 05:21:00,26.0,24.0,29.93,NNW,337,10.0,24.0,91,0.00,,,0.09,,2013-02-01 10:21:00,
2013-02-01 05:32:00,22.0,16.0,29.99,WNW,298,12.0,27.0,77,0.00,,,0.04,,2013-02-01 10:32:00,
2013-02-01 05:43:00,22.0,16.0,29.99,WNW,298,12.0,27.0,77,0.00,,,0.04,,2013-02-01 10:43:00,
2013-02-01 05:53:00,22.0,16.0,29.99,WNW,298,12.0,27.0,77,0.00,,,0.04,,2013-02-01 10:53:00,
2013-02-01 06:02:00,20.0,13.0,30.03,NNW,338,11.0,23.0,75,0.00,,,0.04,,2013-02-01 11:02:00,
2013-02-01 06:11:00,20.0,13.0,30.03,NNW,338,11.0,23.0,75,0.00,,,0.04,,2013-02-01 11:11:00,
2013-02-01 06:22:00,20.0,13.0,30.03,NNW,338,11.0,23.0,75,0.00,,,0.04,,2013-02-01 11:22:00,
2013-02-01 06:32:00,18.0,5.0,30.06,NW,315,13.0,42.0,57,0.01,,,0.02,,2013-02-01 11:32:00,
2013-02-01 06:42:00,18.0,5.0,30.06,NW,315,13.0,42.0,57,0.01,,,0.02,,2013-02-01 11:42:00,
2013-02-01 06:53:00,18.0,5.0,30.06,NW,315,13.0,42.0,57,0.01,,,0.02,,2013-02-01 11:53:00,
2013-02-01 07:03:00,18.0,3.0,30.08,NNW,329,10.0,24.0,50,0.01,,,0.02,,2013-02-01 12:03:00,
2013-02-01 07:12:00,18.0,3.0,30.08,NNW,329,10.0,24.0,50,0.01,,,0.02,,2013-02-01 12:12:00,
2013-02-01 07:23:00,18.0,3.0,30.08,NNW,329,10.0,24.0,50,0.01,,,0.02,,2013-02-01 12:23:00,
2013-02-01 07:32:00,17.0,2.0,30.09,WNW,286,11.0,24.0,51,0.01,,,0.01,,2013-02-01 12:32:00,
2013-02-01 07:42:00,17.0,2.0,30.09,WNW,286,11.0,24.0,51,0.01,,,0.01,,2013-02-01 12:42:00,
2013-02-01 07:52:00,17.0,3.0,30.11,NNW,341,12.0,32.0,53,0.00,,,0.01,,2013-02-01 12:52:00,
2013-02-01 08:02:00,16.0,3.0,30.13,NW,319,10.0,27.0,57,0.00,,,0.01,,2013-02-01 13:02:00,
2013-02-01 08:12:00,16.0,3.0,30.13,NW,319,10.0,27.0,57,0.00,,,0.01,,2013-02-01 13:12:00,
2013-02-01 08:22:00,16.0,5.0,30.14,NW,305,8.0,23.0,61,0.00,,,0.01,,2013-02-01 13:22:00,
2013-02-01 08:33:00,15.0,6.0,30.14,WNW,294,10.0,22.0,68,0.00,,,0.01,,2013-02-01 13:33:00,
2013-02-01 08:42:00,15.0,6.0,30.14,WNW,294,10.0,22.0,68,0.00,,,0.01,,2013-02-01 13:42:00,
2013-02-01 08:53:00,15.0,6.0,30.15,WNW,292,9.0,25.0,67,0.00,,,0.01,,2013-02-01 13:53:00,
2013-02-01 09:03:00,15.0,6.0,30.16,NW,315,12.0,23.0,66,0.00,,,0.01,,2013-02-01 14:03:00,
2013-02-01 09:12:00,15.0,6.0,30.16,NW,315,12.0,23.0,66,0.00,,,0.01,,2013-02-01 14:12:00,
2013-02-01 09:22:00,15.0,7.0,30.18,NW,309,10.0,22.0,70,0.00,,,0.01,,2013-02-01 14:22:00,
2013-02-01 09:32:00,15.0,8.0,30.20,NW,319,9.0,15.0,74,0.00,,,0.01,,2013-02-01 14:32:00,
2013-02-01 09:42:00,15.0,8.0,30.20,NW,319,9.0,15.0,74,0.00,,,0.01,,2013-02-01 14:42:00,
2013-02-01 09:52:00,16.0,8.0,30.21,NNW,333,3.0,10.0,71,0.00,,,0.01,,2013-02-01 14:52:00,
2013-02-01 10:03:00,15.0,5.0,30.22,NNW,334,9.0,19.0,65,0.00,,,0.01,,2013-02-01 15:03:00,
2013-02-01 10:12:00,15.0,5.0,30.22,NNW,334,9.0,19.0,65,0.00,,,0.01,,2013-02-01 15:12:00,
2013-02-01 10:22:00,15.0,5.0,30.22,NNW,334,9.0,19.0,65,0.00,,,0.01,,2013-02-01 15:22:00,
2013-02-01 10:33:00,15.0,5.0,30.24,NW,311,6.0,17.0,63,0.00,,,0.01,,2013-02-01 15:33:00,
2013-02-01 10:42:00,15.0,5.0,30.24,NW,311,6.0,17.0,63,0.00,,,0.01,,2013-02-01 15:42:00,
2013-02-01 10:52:00,16.0,5.0,30.25,NNE,14,7.0,14.0,62,0.00,,,0.01,,2013-02-01 15:52:00,
2013-02-01 11:03:00,16.0,6.0,30.26,WNW,298,7.0,12.0,63,0.00,,,0.01,,2013-02-01 16:03:00,
2013-02-01 11:12:00,16.0,6.0,30.27,NNW,327,5.0,18.0,63,0.00,,,0.01,,2013-02-01 16:12:00,
2013-02-01 11:22:00,16.0,6.0,30.27,NNW,327,5.0,18.0,63,0.00,,,0.01,,2013-02-01 16:22:00,
2013-02-01 11:33:00,16.0,5.0,30.27,NE,34,6.0,14.0,62,0.00,,,0.01,,2013-02-01 16:33:00,
2013-02-01 11:43:00,17.0,6.0,30.28,NW,319,6.0,13.0,62,0.00,,,0.01,,2013-02-01 16:43:00,
2013-02-01 11:52:00,17.0,6.0,30.28,NW,319,6.0,13.0,62,0.00,,,0.01,,2013-02-01 16:52:00,
2013-02-01 12:03:00,17.0,7.0,30.29,North,360,3.0,9.0,63,0.00,,,0.01,,2013-02-01 17:03:00,
2013-02-01 12:12:00,17.0,7.0,30.29,North,360,3.0,9.0,63,0.00,,,0.01,,2013-02-01 17:12:00,
2013-02-01 12:22:00,17.0,7.0,30.29,North,360,3.0,9.0,63,0.00,,,0.01,,2013-02-01 17:22:00,
2013-02-01 12:32:00,16.0,6.0,30.30,West,276,9.0,16.0,63,0.00,,,0.01,,2013-02-01 17:32:00,
2013-02-01 12:42:00,16.0,6.0,30.30,West,276,9.0,16.0,63,0.00,,,0.01,,2013-02-01 17:42:00,
2013-02-01 12:53:00,18.0,6.0,30.29,West,263,8.0,19.0,60,0.00,,,0.01,,2013-02-01 17:53:00,
2013-02-01 13:03:00,18.0,5.0,30.29,West,277,8.0,17.0,57,0.00,,,0.01,,2013-02-01 18:03:00,
2013-02-01 13:12:00,18.0,5.0,30.29,West,277,8.0,17.0,57,0.00,,,0.01,,2013-02-01 18:12:00,
2013-02-01 13:23:00,18.0,6.0,30.29,WSW,249,8.0,18.0,58,0.00,,,0.01,,2013-02-01 18:23:00,
2013-02-01 13:32:00,18.0,5.0,30.29,NW,313,12.0,18.0,56,0.00,,,0.01,,2013-02-01 18:32:00,
2013-02-01 13:42:00,18.0,5.0,30.29,NW,313,12.0,18.0,56,0.00,,,0.01,,2013-02-01 18:42:00,
2013-02-01 13:52:00,19.0,6.0,30.29,West,271,6.0,12.0,56,0.00,,,0.01,,2013-02-01 18:52:00,
2013-02-01 14:03:00,19.0,5.0,30.29,WSW,252,11.0,17.0,54,0.00,,,0.01,,2013-02-01 19:03:00,
2013-02-01 14:12:00,19.0,5.0,30.29,WSW,252,11.0,17.0,54,0.00,,,0.01,,2013-02-01 19:12:00,
2013-02-01 14:22:00,20.0,5.0,30.29,NW,319,8.0,13.0,52,0.00,,,0.01,,2013-02-01 19:22:00,
2013-02-01 14:32:00,20.0,5.0,30.29,NW,319,8.0,13.0,52,0.00,,,0.01,,2013-02-01 19:32:00,
2013-02-01 14:42:00,20.0,5.0,30.29,NW,319,8.0,13.0,52,0.00,,,0.01,,2013-02-01 19:42:00,
2013-02-01 14:51:00,20.0,4.0,30.30,NW,307,8.0,17.0,50,0.00,,,0.01,,2013-02-01 19:51:00,
2013-02-01 15:02:00,20.0,5.0,30.30,WSW,252,7.0,15.0,52,0.00,,,0.01,,2013-02-01 20:02:00,
2013-02-01 15:11:00,20.0,5.0,30.30,WSW,252,7.0,15.0,52,0.00,,,0.01,,2013-02-01 20:11:00,
2013-02-01 15:22:00,20.0,4.0,30.30,WNW,294,10.0,20.0,49,0.00,,,0.01,,2013-02-01 20:22:00,
2013-02-01 15:32:00,20.0,4.0,30.30,NW,306,8.0,20.0,50,0.00,,,0.01,,2013-02-01 20:32:00,
2013-02-01 15:42:00,20.0,4.0,30.30,NW,306,8.0,20.0,50,0.00,,,0.01,,2013-02-01 20:42:00,
2013-02-01 15:52:00,20.0,4.0,30.30,West,277,8.0,19.0,49,0.00,,,0.01,,2013-02-01 20:52:00,
2013-02-01 16:02:00,21.0,5.0,30.31,WNW,298,7.0,15.0,50,0.00,,,0.01,,2013-02-01 21:02:00,
2013-02-01 16:12:00,21.0,5.0,30.31,WNW,298,7.0,15.0,50,0.00,,,0.01,,2013-02-01 21:12:00,
2013-02-01 16:22:00,20.0,4.0,30.31,NNW,344,10.0,18.0,49,0.00,,,0.01,,2013-02-01 21:22:00,
2013-02-01 16:32:00,20.0,4.0,30.32,WNW,282,8.0,21.0,49,0.00,,,0.01,,2013-02-01 21:32:00,
2013-02-01 16:42:00,20.0,4.0,30.32,WNW,282,8.0,21.0,49,0.00,,,0.01,,2013-02-01 21:42:00,
2013-02-01 16:52:00,20.0,4.0,30.32,WNW,300,9.0,16.0,49,0.00,,,0.01,,2013-02-01 21:52:00,
2013-02-01 17:02:00,20.0,4.0,30.32,WNW,290,8.0,20.0,48,0.00,,,0.01,,2013-02-01 22:02:00,
2013-02-01 17:11:00,20.0,4.0,30.32,WNW,290,8.0,20.0,48,0.00,,,0.01,,2013-02-01 22:11:00,
2013-02-01 17:22:00,20.0,4.0,30.32,WSW,241,7.0,14.0,49,0.00,,,0.01,,2013-02-01 22:22:00,
2013-02-01 17:32:00,20.0,4.0,30.33,NW,322,6.0,14.0,50,0.00,,,0.01,,2013-02-01 22:32:00,
2013-02-01 17:42:00,20.0,4.0,30.33,NW,322,6.0,14.0,50,0.00,,,0.01,,2013-02-01 22:42:00,
2013-02-01 17:52:00,19.0,3.0,30.33,WNW,303,5.0,19.0,50,0.00,,,0.01,,2013-02-01 22:52:00,
2013-02-01 18:02:00,19.0,4.0,30.33,WNW,297,6.0,12.0,51,0.00,,,0.01,,2013-02-01 23:02:00,
2013-02-01 18:11:00,19.0,4.0,30.33,WNW,297,6.0,12.0,51,0.00,,,0.01,,2013-02-01 23:11:00,
2013-02-01 18:22:00,18.0,3.0,30.33,WNW,299,6.0,15.0,51,0.00,,,0.01,,2013-02-01 23:22:00,
2013-02-01 18:32:00,18.0,3.0,30.33,NW,323,4.0,12.0,52,0.00,,,0.01,,2013-02-01 23:32:00,
2013-02-01 18:42:00,18.0,3.0,30.33,NW,323,4.0,12.0,52,0.00,,,0.01,,2013-02-01 23:42:00,
2013-02-01 18:52:00,18.0,3.0,30.33,NW,323,4.0,12.0,52,0.00,,,0.01,,2013-02-01 23:52:00,
2013-02-01 19:02:00,18.0,4.0,30.35,NNW,343,7.0,15.0,53,0.00,,,0.01,,2013-02-02 00:02:00,
2013-02-01 19:11:00,18.0,4.0,30.35,NNW,343,7.0,15.0,53,0.00,,,0.01,,2013-02-02 00:11:00,
2013-02-01 19:22:00,18.0,4.0,30.35,West,279,7.0,14.0,53,0.00,,,0.01,,2013-02-02 00:22:00,
2013-02-01 19:32:00,17.0,3.0,30.35,WNW,287,5.0,13.0,54,0.00,,,0.01,,2013-02-02 00:32:00,
2013-02-01 19:42:00,17.0,3.0,30.35,WNW,287,5.0,13.0,54,0.00,,,0.01,,2013-02-02 00:42:00,
2013-02-01 19:52:00,17.0,4.0,30.36,West,269,7.0,11.0,55,0.00,,,0.01,,2013-02-02 00:52:00,
2013-02-01 20:03:00,17.0,4.0,30.37,West,279,6.0,13.0,55,0.00,,,0.01,,2013-02-02 01:03:00,
2013-02-01 20:11:00,17.0,4.0,30.37,West,279,6.0,13.0,55,0.00,,,0.01,,2013-02-02 01:11:00,
2013-02-01 20:21:00,17.0,4.0,30.37,West,277,5.0,10.0,56,0.00,,,0.01,,2013-02-02 01:21:00,
2013-02-01 20:32:00,17.0,4.0,30.37,West,262,8.0,15.0,57,0.00,,,0.01,,2013-02-02 01:32:00,
2013-02-01 20:42:00,17.0,4.0,30.37,West,262,8.0,15.0,57,0.00,,,0.01,,2013-02-02 01:42:00,
2013-02-01 20:52:00,17.0,5.0,30.38,WNW,302,4.0,9.0,59,0.00,,,0.01,,2013-02-02 01:52:00,
2013-02-01 21:01:00,16.0,5.0,30.39,WNW,298,2.0,7.0,60,0.00,,,0.01,,2013-02-02 02:01:00,
2013-02-01 21:11:00,16.0,5.0,30.39,WNW,298,2.0,7.0,60,0.00,,,0.01,,2013-02-02 02:11:00,
2013-02-01 21:22:00,16.0,5.0,30.39,NW,309,0.0,5.0,61,0.00,,,0.01,,2013-02-02 02:22:00,
2013-02-01 21:32:00,16.0,6.0,30.40,WSW,238,0.0,3.0,63,0.00,,,0.01,,2013-02-02 02:32:00,
2013-02-01 21:42:00,16.0,6.0,30.40,WSW,238,0.0,3.0,63,0.00,,,0.01,,2013-02-02 02:42:00,
2013-02-01 21:52:00,16.0,5.0,30.40,NW,324,5.0,9.0,61,0.00,,,0.01,,2013-02-02 02:52:00,
2013-02-01 22:02:00,16.0,5.0,30.40,North,355,3.0,9.0,62,0.00,,,0.01,,2013-02-02 03:02:00,
2013-02-01 22:11:00,16.0,5.0,30.40,North,355,3.0,9.0,62,0.00,,,0.01,,2013-02-02 03:11:00,
2013-02-01 22:22:00,16.0,5.0,30.40,NW,319,1.0,8.0,62,0.00,,,0.01,,2013-02-02 03:22:00,
2013-02-01 22:32:00,16.0,5.0,30.40,WNW,286,2.0,7.0,62,0.00,,,0.01,,2013-02-02 03:32:00,
2013-02-01 22:42:00,16.0,5.0,30.40,NW,306,4.0,10.0,62,0.00,,,0.01,,2013-02-02 03:42:00,
2013-02-01 22:52:00,16.0,5.0,30.40,NW,306,4.0,10.0,62,0.00,,,0.01,,2013-02-02 03:52:00,
2013-02-01 23:02:00,16.0,6.0,30.40,NNW,334,3.0,6.0,63,0.00,,,0.01,,2013-02-02 04:02:00,
2013-02-01 23:11:00,16.0,6.0,30.40,NNW,334,3.0,6.0,63,0.00,,,0.01,,2013-02-02 04:11:00,
2013-02-01 23:22:00,15.0,5.0,30.40,NW,304,2.0,10.0,63,0.00,,,0.01,,2013-02-02 04:22:00,
2013-02-01 23:32:00,15.0,5.0,30.40,NNW,332,3.0,6.0,64,0.00,,,0.01,,2013-02-02 04:32:00,
2013-02-01 23:42:00,15.0,5.0,30.40,NNW,332,3.0,6.0,64,0.00,,,0.01,,2013-02-02 04:42:00,
2013-02-01 23:52:00,15.0,5.0,30.40,West,272,1.0,6.0,65,0.00,,,0.01,,2013-02-02 04:52:00,